Wind_Speed
12 15 16 16 23 24 27 29 33 33 38 37 47 57 61 52 47 49 47 51 50 50 58 64 64 65 68 70 70 69 70 66 62 61 59 58 56 54 52 43 40 40 39 42
12 16 17 18 20 22 25 30 30 32 34 37 45 50 51 48 48 45 40 49 47 51 47 52 57 61 64 66 64 65 64 59 56 56 54 51 47 42 38 35 38 39 33 40
16 19 18 21 20 20 22 24 24 26 28 31 32 32 33 25 23 31 27 31 47 40 55 52 61 63 60 57 54 53 48 48 46 44 41 38 36 36 34 39 40 40 42 48
18 19 20 19 21 22 23 24 23 22 23 26 29 30 30 28 24 17 13 34 54 49 52 61 65 68 54 46 43 40 39 36 34 32 29 31 31 34 37 41 40 46 47 53
19 20 20 21 21 22 24 25 26 25 27 27 31 25 30 28 20 14 22 27 39 42 61 57 51 44 35 28 30 30 29 27 26 26 28 30 33 38 37 38 43 43 47 52
22 22 22 23 22 22 24 25 27 27 30 27 31 26 22 23 24 23 24 28 29 20 55 41 38 29 24 26 27 26 25 25 28 29 31 37 38 37 38 40 44 50 55 57
22 22 20 22 20 22 22 23 26 26 29 30 30 26 22 15 17 31 30 27 15 24 34 44 31 26 27 28 24 23 25 28 31 35 39 41 37 37 40 45 49 52 51 50
21 27 20 17 26 24 26 26 27 24 27 27 31 19 17 16 21 18 25 29 23 8 49 37 28 20 29 29 31 32 33 35 37 36 35 36 39 39 44 49 49 53 49 54
23 29 27 23 25 27 29 30 29 25 21 22 25 25 21 12 26 15 25 25 32 32 36 36 23 28 33 35 33 34 35 33 34 37 37 37 42 44 44 47 52 53 54 63
27 29 29 28 28 29 29 29 29 27 17 17 23 22 21 4 18 6 13 14 33 43 41 33 37 37 32 30 33 34 39 38 38 42 40 42 48 50 49 51 57 59 62 65
31 32 34 31 30 28 31 29 25 22 20 16 18 26 17 13 18 19 6 24 23 41 45 36 43 40 34 35 35 43 40 42 46 46 46 46 46 49 52 57 59 62 64 73
32 32 33 33 31 24 24 22 24 19 20 20 19 19 17 13 15 12 31 21 25 53 44 37 41 39 36 36 44 45 46 48 46 50 50 51 48 52 58 59 61 75 79 77
34 32 32 33 30 21 22 25 22 20 21 22 19 23 19 19 16 26 30 28 20 33 35 46 45 41 47 45 51 48 54 52 48 56 57 52 56 58 61 69 74 82 76 70
35 33 30 31 29 31 30 30 29 22 24 22 22 26 24 22 20 13 18 17 29 36 41 42 36 50 54 50 54 55 56 59 55 59 58 61 68 69 72 79 77 72 70 62
32 35 32 31 31 34 34 37 32 27 25 20 25 28 28 25 18 25 32 33 37 46 45 34 39 52 47 50 48 52 60 62 61 60 66 73 69 73 73 65 63 60 59 57
36 41 34 35 35 37 37 36 32 30 27 25 26 28 32 28 23 25 32 37 42 46 42 33 37 36 51 53 53 59 63 59 65 66 65 63 56 54 52 55 57 59 58 56
48 43 36 37 36 35 35 34 35 30 27 27 27 27 30 32 30 28 29 32 31 35 34 31 39 45 53 56 63 58 54 61 64 53 41 45 46 47 51 54 56 58 60 59
43 41 37 35 34 32 35 38 37 32 30 28 27 29 29 31 30 30 32 34 30 29 30 35 37 41 48 48 46 55 59 64 48 47 45 48 50 51 54 57 58 59 60 59
42 38 35 35 36 36 37 41 34 32 30 26 28 30 28 27 28 31 34 35 40 40 40 42 43 44 44 50 58 65 56 43 45 49 48 51 51 54 55 58 60 63 63 62
40 38 35 39 35 36 38 37 32 31 29 27 29 31 27 26 28 25 27 34 40 39 45 46 51 51 43 40 41 41 44 46 49 50 50 52 55 57 59 60 61 62 64 63
39 34 38 37 37 36 36 37 32 31 29 27 29 32 31 29 28 28 29 28 28 30 32 34 36 38 39 40 42 45 47 50 52 53 55 56 60 61 62 63 64 64 67 69
35 36 38 36 33 32 38 40 39 36 36 37 39 37 34 33 32 33 31 32 32 33 32 35 37 39 42 44 45 49 53 55 56 58 59 61 63 64 66 68 69 70 69 73
36 36 36 32 33 35 33 40 38 37 35 39 42 39 36 39 35 37 36 35 35 36 38 41 43 45 46 49 52 55 59 60 60 63 64 66 69 69 71 73 75 75 74 75
37 29 28 35 33 30 38 36 30 35 32 33 37 40 39 38 39 41 42 43 43 44 46 48 49 51 54 55 59 62 63 65 66 69 71 73 75 75 76 78 80 81 80 79
33 28 33 35 29 25 29 24 27 42 37 43 46 47 45 42 43 46 49 50 51 52 53 55 56 58 60 64 66 68 70 72 74 76 75 78 79 80 81 83 86 88 87 87
37 33 37 37 31 36 36 33 32 42 46 51 59 58 51 50 52 52 54 55 55 56 57 60 61 63 65 69 72 75 78 79 81 83 83 84 83 86 89 91 93 94 93 95
Wind_Direction
268 271 270 262 273 281 287 285 279 275 273 264 254 266 286 288 285 286 298 290 297 298 297 294 287 281 279 280 281 281 282 284 286 288 290 292 292 293 295 297 299 304 304 305
283 289 286 280 281 283 284 290 288 281 278 270 269 276 285 291 292 288 283 272 298 314 303 301 296 291 284 282 282 282 283 285 286 287 287 288 293 292 294 298 298 301 300 304
278 283 284 286 286 283 285 290 297 288 285 282 284 291 293 303 303 308 297 307 289 299 304 303 305 302 289 283 284 287 288 288 287 287 289 290 289 290 298 299 296 295 296 301
281 281 284 290 293 296 302 304 303 301 295 288 286 291 285 283 294 303 244 208 259 306 303 303 307 301 291 282 284 289 289 290 290 287 287 288 291 296 297 294 298 298 296 301
286 280 282 287 294 296 297 299 295 291 295 297 297 303 301 304 294 213 199 277 255 307 303 311 306 304 301 290 288 289 289 290 287 292 295 294 300 297 296 296 298 306 310 309
288 285 287 288 291 291 291 290 288 289 293 303 298 305 314 316 328 280 260 280 280 301 290 317 322 318 310 298 295 296 297 296 293 298 300 300 298 292 291 299 304 306 310 311
295 291 289 293 289 286 285 289 289 290 294 297 301 312 305 300 224 275 273 281 282 295 290 322 325 319 312 303 302 296 303 304 302 298 301 303 299 295 295 304 309 308 310 311
291 288 287 292 297 286 283 286 289 290 282 292 300 307 333 275 272 283 294 293 297 259 270 315 319 320 313 304 303 302 303 302 300 301 305 305 303 301 305 308 307 312 311 317
286 285 290 281 280 284 285 289 290 295 286 303 300 310 2 3 303 306 283 285 307 316 311 321 303 314 303 308 309 310 309 310 311 314 308 307 308 302 305 314 318 318 313 317
289 282 285 285 284 288 291 295 296 299 289 301 300 306 332 266 253 277 284 298 301 305 307 300 292 306 308 307 319 314 315 312 307 319 306 305 305 303 305 314 317 315 312 306
288 284 285 285 283 287 292 298 294 288 293 291 292 292 313 234 243 283 300 315 274 311 299 305 295 297 300 305 312 316 311 309 309 310 312 307 305 308 312 316 318 315 310 314
284 284 282 285 286 290 290 303 294 281 283 286 287 287 287 248 255 200 222 256 244 289 265 298 293 294 302 310 317 318 308 317 308 310 318 316 311 311 318 314 310 311 315 314
281 283 282 284 284 278 298 309 296 275 279 295 306 306 287 268 255 246 236 250 246 229 261 281 271 282 309 310 312 311 307 315 314 316 318 316 316 314 310 310 311 310 311 311
278 280 281 281 282 281 282 299 307 287 287 291 303 305 301 285 272 239 217 245 264 261 273 287 262 283 311 305 305 305 306 310 315 316 321 318 309 306 309 308 310 310 309 312
281 283 284 281 280 281 286 295 302 289 279 287 297 304 301 294 270 244 235 252 246 255 272 264 266 283 294 297 291 292 299 304 313 315 308 306 307 310 311 311 313 315 316 318
279 286 286 285 281 282 288 296 298 293 279 285 293 301 302 298 277 254 254 249 251 261 267 253 261 257 274 280 288 292 296 301 295 296 306 314 316 317 321 322 323 322 321 321
281 280 284 285 287 288 290 290 298 293 281 285 289 295 297 298 288 276 265 262 260 256 261 255 263 265 269 274 285 287 299 299 298 305 314 317 322 328 333 333 331 326 324 322
278 277 280 283 286 289 296 298 297 290 281 287 292 296 296 304 297 277 277 277 278 271 260 265 275 279 282 279 288 290 289 293 296 304 312 318 324 329 332 333 337 336 331 328
276 273 277 278 284 289 295 298 293 284 285 288 293 293 296 297 301 289 276 275 275 272 269 265 279 285 283 277 271 278 283 292 299 306 312 318 323 326 328 331 335 337 333 329
270 271 270 275 285 292 292 296 289 283 284 289 291 290 291 298 300 295 288 275 271 271 269 274 272 275 280 283 282 285 291 297 303 309 314 320 325 326 327 328 330 333 332 331
271 266 270 278 283 289 295 300 291 277 276 284 293 294 292 292 291 291 291 286 281 277 275 273 274 280 284 287 287 291 296 300 305 309 314 319 322 325 325 325 326 328 329 331
269 270 272 279 286 294 300 304 296 287 274 275 284 293 290 290 294 296 296 296 293 289 285 285 286 286 286 289 292 295 298 302 305 309 313 318 318 320 323 324 324 325 326 326
262 264 270 285 281 295 303 308 304 294 285 281 282 285 287 291 292 293 293 295 292 288 286 288 289 290 290 292 294 297 300 302 307 308 311 314 316 318 319 321 322 321 322 323
260 269 270 282 275 292 306 309 305 298 294 294 295 290 285 288 293 294 294 293 292 292 292 292 292 293 294 295 296 298 300 303 304 307 309 313 314 316 317 317 317 317 318 318
265 267 263 261 271 273 290 297 224 269 291 291 298 296 290 287 290 292 293 293 293 293 293 294 294 295 295 296 297 299 301 302 304 306 307 309 311 312 313 314 315 314 315 315
258 261 253 257 263 265 253 277 271 270 281 280 290 290 288 290 292 291 290 291 293 294 294 295 296 294 293 295 297 300 301 304 305 305 305 306 308 309 310 312 311 311 312 312
Height
10876 10876 10877 10878 10876 10876 10874 10875 10873 10873 10872 10874 10869 10862 10855 10860 10862 10859 10860 10844 10848 10852 10839 10833 10830 10826 10821 10818 10818 10816 10814 10814 10814 10810 10808 10804 10800 10795 10791 10786 10782 10779 10775 10770
10873 10873 10872 10872 10872 10871 10870 10867 10866 10864 10863 10863 10859 10858 10853 10853 10848 10848 10852 10844 10839 10839 10832 10825 10822 10815 10808 10805 10804 10802 10801 10802 10801 10796 10797 10794 10790 10785 10782 10779 10774 10771 10767 10762
10871 10869 10869 10868 10868 10867 10865 10864 10860 10857 10855 10854 10853 10852 10848 10848 10842 10843 10838 10832 10825 10826 10821 10814 10812 10808 10796 10794 10793 10792 10792 10790 10790 10788 10784 10783 10780 10776 10775 10770 10767 10765 10759 10754
10866 10864 10863 10862 10861 10860 10858 10856 10854 10852 10851 10849 10847 10845 10840 10839 10840 10837 10830 10835 10824 10825 10817 10804 10800 10795 10788 10784 10787 10786 10784 10783 10781 10779 10778 10776 10774 10771 10768 10764 10761 10755 10753 10746
10861 10860 10859 10858 10857 10855 10854 10852 10850 10848 10845 10842 10838 10840 10831 10832 10836 10836 10832 10832 10832 10833 10812 10806 10792 10787 10780 10781 10782 10780 10778 10777 10775 10773 10772 10770 10768 10764 10761 10758 10755 10750 10742 10736
10856 10855 10854 10852 10851 10849 10848 10846 10845 10842 10838 10836 10832 10834 10832 10829 10829 10831 10827 10827 10831 10830 10821 10805 10793 10786 10784 10780 10778 10777 10774 10773 10771 10769 10766 10763 10761 10757 10753 10751 10746 10741 10734 10724
10852 10850 10849 10847 10845 10844 10842 10840 10839 10836 10832 10829 10825 10826 10825 10822 10818 10820 10816 10817 10823 10827 10812 10798 10792 10786 10784 10780 10780 10776 10773 10770 10767 10763 10760 10757 10753 10751 10747 10744 10736 10731 10725 10718
10847 10843 10845 10844 10840 10837 10835 10834 10831 10831 10828 10825 10816 10818 10817 10812 10810 10811 10810 10808 10809 10804 10804 10789 10783 10777 10783 10784 10778 10775 10771 10766 10762 10758 10753 10749 10747 10743 10740 10733 10730 10721 10716 10709
10841 10838 10837 10838 10838 10833 10829 10826 10824 10824 10822 10819 10813 10810 10812 10806 10815 10808 10801 10800 10800 10801 10800 10780 10775 10776 10774 10776 10773 10772 10767 10764 10758 10753 10748 10743 10740 10735 10730 10725 10718 10711 10705 10698
10835 10834 10832 10831 10829 10825 10822 10821 10818 10815 10817 10812 10808 10806 10805 10806 10811 10801 10798 10797 10793 10792 10791 10786 10778 10775 10771 10769 10766 10764 10761 10758 10754 10747 10741 10737 10730 10726 10721 10716 10709 10701 10693 10686
10829 10827 10825 10825 10822 10820 10815 10813 10811 10808 10807 10807 10805 10799 10797 10799 10800 10796 10796 10785 10795 10792 10778 10773 10775 10772 10770 10763 10757 10756 10754 10751 10747 10741 10735 10728 10723 10717 10711 10704 10697 10689 10682 10672
10823 10821 10819 10817 10815 10814 10810 10806 10803 10803 10802 10801 10798 10796 10794 10792 10792 10791 10790 10789 10796 10775 10772 10767 10766 10769 10764 10756 10748 10742 10744 10743 10738 10733 10726 10719 10713 10707 10700 10693 10686 10676 10665 10657
10815 10814 10812 10809 10808 10808 10802 10799 10798 10796 10796 10793 10790 10786 10784 10782 10780 10781 10780 10778 10778 10779 10766 10762 10756 10759 10754 10744 10741 10735 10732 10732 10728 10724 10718 10710 10702 10695 10689 10680 10670 10662 10652 10644
10807 10805 10805 10803 10800 10799 10797 10793 10790 10789 10788 10787 10783 10779 10776 10774 10772 10776 10770 10768 10761 10755 10757 10752 10751 10752 10738 10732 10727 10725 10723 10724 10718 10713 10705 10699 10694 10684 10675 10666 10656 10647 10639 10630
10796 10797 10796 10795 10793 10791 10789 10784 10782 10781 10780 10780 10776 10772 10768 10766 10766 10764 10763 10758 10755 10754 10751 10748 10747 10741 10736 10729 10724 10720 10717 10716 10709 10702 10696 10687 10678 10669 10660 10651 10644 10635 10626 10618
10790 10789 10789 10786 10786 10783 10781 10777 10775 10773 10772 10771 10770 10765 10759 10757 10757 10756 10753 10751 10749 10745 10744 10741 10735 10731 10728 10721 10716 10713 10710 10705 10701 10696 10687 10677 10667 10660 10649 10641 10632 10623 10614 10607
10782 10782 10782 10779 10778 10776 10773 10770 10768 10765 10764 10763 10762 10759 10753 10747 10744 10744 10742 10740 10741 10737 10733 10730 10722 10722 10718 10714 10711 10709 10702 10698 10694 10686 10677 10669 10660 10650 10640 10631 10624 10614 10603 10595
10777 10774 10775 10773 10770 10770 10765 10762 10760 10758 10755 10755 10754 10752 10747 10739 10735 10732 10729 10728 10727 10726 10724 10721 10718 10714 10710 10706 10702 10698 10694 10690 10684 10677 10668 10660 10650 10641 10631 10623 10614 10604 10594 10586
10768 10768 10767 10766 10763 10762 10757 10752 10751 10748 10746 10747 10745 10744 10740 10735 10729 10724 10721 10718 10717 10716 10714 10712 10708 10706 10702 10698 10693 10688 10684 10678 10672 10666 10658 10650 10640 10632 10624 10614 10606 10596 10587 10578
10760 10758 10759 10756 10754 10752 10748 10744 10741 10738 10737 10736 10736 10734 10733 10730 10725 10720 10715 10711 10708 10706 10704 10701 10698 10696 10691 10688 10682 10677 10672 10667 10660 10654 10646 10637 10628 10621 10614 10605 10598 10590 10580 10572
10750 10749 10748 10746 10745 10743 10738 10734 10731 10730 10729 10726 10725 10724 10723 10721 10719 10715 10711 10707 10704 10699 10696 10694 10690 10686 10682 10676 10671 10666 10660 10653 10646 10639 10632 10625 10616 10609 10603 10595 10588 10581 10571 10562
10739 10740 10740 10739 10739 10735 10730 10729 10726 10724 10721 10718 10715 10713 10713 10711 10708 10706 10704 10699 10696 10692 10688 10684 10680 10675 10670 10666 10659 10652 10646 10640 10633 10626 10620 10613 10605 10598 10589 10582 10573 10566 10560 10550
10728 10730 10732 10734 10730 10728 10725 10719 10715 10712 10709 10708 10707 10704 10702 10699 10699 10695 10692 10689 10685 10682 10678 10673 10668 10663 10657 10651 10645 10640 10632 10625 10620 10612 10606 10598 10588 10582 10573 10566 10558 10552 10545 10538
10718 10722 10721 10718 10717 10719 10716 10709 10704 10702 10700 10698 10697 10696 10693 10690 10686 10684 10680 10677 10673 10669 10664 10659 10654 10649 10642 10636 10630 10623 10617 10610 10603 10595 10588 10580 10570 10563 10555 10548 10541 10533 10528 10523
10709 10715 10711 10705 10707 10708 10707 10704 10702 10692 10691 10690 10687 10685 10683 10680 10675 10671 10667 10664 10659 10655 10650 10644 10639 10634 10628 10620 10615 10606 10598 10591 10583 10575 10568 10560 10551 10543 10537 10530 10522 10512 10506 10501
10704 10704 10703 10697 10701 10701 10698 10695 10692 10685 10681 10680 10676 10672 10669 10666 10662 10658 10654 10649 10645 10640 10635 10628 10622 10615 10610 10604 10597 10589 10579 10572 10564 10554 10548 10539 10531 10521 10514 10506 10499 10488 10482 10477